Printer-friendly version

IAU Minor Planet Center

Minor Planet Center

MPEC 2009-U130: COMET P/2009 Q4 (BOATTINI)

The following Minor Planet Electronic Circular may be linked-to from your own Web pages, but must not otherwise be redistributed electronically.


Read MPEC 2009-U129 Read MPEC 2009-U131


M.P.E.C. 2009-U130                               Issued 2009 Oct. 30, 16:28 UT

     The Minor Planet Electronic Circulars contain information on unusual
         minor planets and routine data on comets.  They are published
   on behalf of Commission 20 of the International Astronomical Union by the
          Minor Planet Center, Smithsonian Astrophysical Observatory,
                          Cambridge, MA 02138, U.S.A.

             Prepared using the Tamkin Foundation Computer Network

                              MPC@CFA.HARVARD.EDU
          URL http://www.cfa.harvard.edu/iau/mpc.html  ISSN 1523-6714

                          COMET P/2009 Q4 (BOATTINI)

Observations:
    PK09Q040  C2009 10 20.72924 07 22 42.25 +05 46 26.6                 EU130900
    PK09Q040  C2009 10 20.73281 07 22 42.96 +05 46 25.4          15.6 N EU130900
    PK09Q040  C2009 10 24.79932 07 36 02.58 +05 23 25.5                 EU130367
    PK09Q040  C2009 10 24.80214 07 36 03.13 +05 23 24.6          14.7 T EU130367
    PK09Q040  C2009 10 25.10980 07 37 03.56 +05 21 39.5          15.2 N EU130939
    PK09Q040  C2009 10 25.11216 07 37 04.03 +05 21 38.7          15.2 N EU130939
    PK09Q040  C2009 10 25.11455 07 37 04.52 +05 21 37.8          15.2 N EU130939
    PK09Q040  C2009 10 25.12647 07 37 06.53 +05 21 33.3          15.2 N EU130232
    PK09Q040  C2009 10 25.13038 07 37 07.50 +05 21 32.2          15.4 N EU130232
    PK09Q040  C2009 10 25.13429 07 37 08.32 +05 21 30.3          15.3 N EU130232
    PK09Q040  C2009 10 25.16581 07 37 14.57 +05 21 22.1          15.8 N EU130J51
    PK09Q040  C2009 10 25.16894 07 37 15.16 +05 21 21.1          15.7 N EU130J51
    PK09Q040  C2009 10 25.17206 07 37 15.76 +05 21 20.1          15.5 N EU130J51
    PK09Q040  C2009 10 26.40890 07 41 17.42 +05 14 20.5          16.4 T EU130704
    PK09Q040  C2009 10 26.42227 07 41 19.88 +05 14 16.3          16.6 T EU130704
    PK09Q040  C2009 10 26.43563 07 41 22.43 +05 14 11.9          16.7 T EU130704
    PK09Q040  C2009 10 26.44899 07 41 24.75 +05 14 07.1          17.1 T EU130704
    PK09Q040  C2009 10 26.46231 07 41 27.64 +05 14 02.7          16.5 T EU130704
    PK09Q040  C2009 10 28.12349 07 46 51.80 +05 04 43.9          16.1 N EU130J40
    PK09Q040  C2009 10 28.13995 07 46 54.95 +05 04 38.3          15.9 N EU130J40
    PK09Q040  C2009 10 28.15524 07 46 57.87 +05 04 33.1          16.2 N EU130J40
    PK09Q040  C2009 10 29.16829 07 50 13.99 +04 58 54.2          15.9 N EU130215
    PK09Q040  C2009 10 29.16900 07 50 14.13 +04 58 53.9          15.9 N EU130215
    PK09Q040  C2009 10 29.16970 07 50 14.26 +04 58 53.7          15.9 N EU130215

Observer details:
215 Buchloe.  Observer W. Hasubick.  0.44-m f/4.6 reflector + CCD.
232 Masquefa Observatory.  Observer E. Reina.  0.25-m f/3.3 Schmidt-Cassegrain
    + CCD.
367 Yatsuka.  Observer H. Abe.  0.26-m f/6.0 reflector + CCD.
704 Lincoln Laboratory ETS, New Mexico.  Observers M. Bezpalko, D. Torres,
    R. Kracke, G. Spitz, M. Blythe.  Measurer J. Stuart.  1.0-m f/2.15
    reflector + CCD.
900 Moriyama.  Observer Y. Ikari.  0.26-m f/7.0 reflector + CCD.
939 Observatorio Rodeno.  Observer J. Castellano.  0.20-m f/10
    Schmidt-Cassegrain + CCD.
J40 Malaga.  Observer J. M. Ruiz.  0.20-m f/5 Newtonian reflector + CCD.
J51 Observatorio Atlante, Tenerife.  Observer J. A. Henriquez.  0.2-m f/9
    Cassegrain + CCD.

Orbital elements:
    P/2009 Q4 (Boattini)
Epoch 2009 Nov. 25.0 TT = JDT 2455160.5
T 2009 Nov. 19.92976 TT                                 MPC
q   1.3207854            (2000.0)            P               Q
n   0.17741359     Peri.  320.01998     +0.03105513     -0.98810497
a   3.1367371      Node   127.66771     +0.95878361     -0.01312996
e   0.5789302      Incl.   10.96861     +0.28243509     +0.15321934
P   5.56
Residuals in seconds of arc
090826 703  1.6-  0.8-    090909 349  1.0-  0.1-    091012 939  0.9-  0.6-
090826 703  1.7-  0.8+    090912 704  1.4-  0.2-    091012 939  0.5-  0.3-
090826 703  1.2-  1.0-    090912 704  0.9-  0.5+    091012 939  0.4-  0.1+
090826 703  1.4-  0.3+    090912 704  0.3-  0.2+    091017 J59  0.1-  0.1-
090827 932  0.7+  0.3-    090912 704  0.1-  0.9+    091017 J59  0.4+  0.1+
090827 932  0.1+  0.7+    090913 J51  1.2-  0.2-    091017 J59  0.1+  0.4+
090827 932  1.0+  0.1-    090913 J51  0.4-  0.1+    091017 H47  0.1+  0.1+
090827 H06  0.6+  0.2+    090913 J51  0.1-  0.4+    091017 H47  0.9+  0.6-
090827 H06  0.3+  0.1+    090914 J24  1.9+  0.3+    091018 232  1.1-  0.1-
090827 H06  0.1+  0.1-    090914 J24  0.5+  0.6+    091018 232  0.1-  0.1-
090828 703  0.0   1.5+    090914 J24  0.8+  0.5+    091018 232  0.5+  0.1+
090828 703  0.5+  1.3-    090916 H10  0.5+  0.3+    091019 H47  0.2-  0.3+
090828 703 (2.1+  1.0+)   090916 H10  0.4-  0.2+    091019 H47 (2.6+  0.6+)
090829 H06  0.7-  0.0     090916 H10  0.2+  0.1+    091019 H47  0.2+  0.1-
090829 H06  1.2+  0.5-    090917 G96  1.3-  0.1-    091019 349  0.4+  0.3-
090829 854  1.6+  0.2-    090917 G96  1.3-  0.3-    091019 349  0.0   0.1+
090829 854  1.4+  0.2-    090917 G96  0.5+  0.0     091019 349  0.1+  0.0
090829 854  0.5+  1.1-    090917 G96  0.0   0.0     091020 H47  0.1+  0.4+
090829 A50 (1.0+  3.8+)   090919 900  0.4-  0.2+    091020 H47  0.3-  0.1-
090829 A50 (1.0+  2.3+)   090919 900  0.6-  1.0+    091020 H47  0.4-  0.2-
090829 A50  0.3-  1.9+    090920 H06  0.3-  0.0     091020 900  0.0   0.1-
090829 A50  0.6-  0.3-    090920 H06  0.4-  0.0     091020 900  0.2+  0.1-
090830 113  0.7+  0.1+    090920 H06  0.0   0.2+    091021 A79  0.2-  0.3+
090830 113  0.1+  0.0     090922 585  0.8+  1.0+    091021 A79  0.5+  0.1+
090830 113  0.7+  0.2+    090922 585  0.4-  0.9+    091021 A79  0.6+  0.1+
090830 A17  0.4-  0.6-    090922 585  0.5+  0.6+    091021 A79  0.2+  0.4+
090830 A17  0.3+  0.5-    090922 585  1.3+  0.4-    091021 A79  1.1+  0.7-
090830 A17  0.2+  0.1+    090922 585  1.0-  0.2+    091022 H10 (2.2+  1.1-)
090830 H55  1.2+  0.6-    090923 204  0.1-  0.0     091023 H10  0.5-  0.9-
090830 H55  0.5+  0.2-    090923 204  0.2+  0.6+    091024 H45  0.2-  0.1+
090830 H55  1.0+  0.2-    090924 349  0.4-  0.3+    091024 H45  0.3-  0.0
090830 H55  1.2+  0.3-    090924 349  0.5-  0.2+    091024 H45  0.1-  0.1+
090830 291  0.6-  0.0     090924 349  0.2-  0.1+    091024 H45  0.2-  0.0
090830 291  0.3-  0.1+    090926 H06  0.1+  0.0     091024 H45  0.3-  0.1+
090830 291  0.6-  0.0     090926 H06  0.1-  0.2+    091024 H45  0.0   0.0
090830 300  0.5+  0.3+    090926 H06  0.8-  0.1-    091024 H45  0.3-  0.1+
090830 300  0.4-  0.8-    090927 A71  0.2-  0.1-    091024 G96 (2.6-  0.0 )
090830 300  0.5+  0.3-    090927 A71  0.5-  0.0     091024 G96 (3.1-  0.0 )
090830 300  0.1-  0.2-    090927 A71  0.1+  0.1+    091024 G96 (2.1-  0.1-)
090831 H36  0.2-  0.0     090929 585  1.4+  0.2+    091024 367  0.2-  0.1-
090831 H36  0.6+  0.3-    090929 585  1.8+  0.4+    091024 367  0.1-  0.0
090901 A71  0.3+  0.0     090929 585 (2.0+  0.7+)   091025 939  0.2-  0.0
090902 H06  0.0   1.4-    090929 585  0.9+  0.0     091025 939  0.0   0.0
090902 H06  0.6+  0.7-    090929 585  1.3+  0.7+    091025 939  0.4+  0.1-
090902 H06  0.4+  0.3-    091004 160  1.5-  0.1+    091025 232 (3.6-  0.4-)
090905 H06  0.0   0.7-    091004 160  0.0   0.3+    091025 232  0.4-  0.1-
090905 H06  0.2-  0.2+    091004 160  0.4-  0.0     091025 232  0.6+  0.7-
090905 H06  1.2-  0.4+    091004 349  0.5-  0.4+    091025 J51  0.2+  0.3-
090906 118  0.8+  0.8-    091004 349  0.2-  1.2+    091025 J51  0.0   0.2-
090906 118  0.5+  1.2+    091005 J47  0.7+  0.1+    091025 J51  0.0   0.2-
090906 204  0.3+  0.1-    091005 J47  0.5+  0.6-    091026 704 (2.3-  0.5-)
090906 204  0.2-  0.3-    091005 J47  0.6+  0.4-    091026 704 (4.0-  0.2-)
090909 585  1.7+  0.4+    091005 H06  0.3+  0.2+    091026 704 (4.2-  0.2-)
090909 585  0.5+  0.1+    091005 H06  0.0   0.2+    091026 704 (7.8-  0.5-)
090909 585  1.2+  0.3-    091005 H06  0.1-  0.1+    091026 704 (2.8-  0.4-)
090909 585 (2.2+  0.5+)   091010 A79  0.2+  0.3+    091028 J40 (3.7+  0.4-)
090909 585  1.4+  0.8+    091010 A79  0.8+  0.3+    091028 J40 (3.7+  0.5-)
090909 585  0.8+  0.4-    091010 A79  0.5+  0.4+    091028 J40 (3.7+  0.6-)
090909 850  1.1-  1.1-    091010 A79  0.5-  0.4+    091029 215  0.2-  0.2-
090909 850  1.6-  1.6-    091011 939  0.6-  0.1-    091029 215  0.1-  0.3-
090909 349  0.4-  0.2+    091011 939  0.6-  0.2-    091029 215  0.2-  0.3-
090909 349  0.9-  0.1-    091011 939  0.2-  0.5-

Brian G. Marsden             (C) Copyright 2009 MPC           M.P.E.C. 2009-U130

Read MPEC 2009-U129 Read MPEC 2009-U131

Valid HTML 4.01!